RH
92 90 85 82 60 62 65 79 66 68 74 70 75 97 74 87 98 99 99 100 98 94 96 87 68 57 46 38 30 31 27 23 20 19 16 18 17 15 14 13 13 13 13 14 13 12 12
92 94 92 95 90 61 60 76 61 75 65 68 100 98 95 93 99 100 99 97 95 95 96 89 69 56 45 35 28 25 22 21 20 19 17 15 14 13 12 12 13 13 13 12 12 11 10
89 95 98 91 87 84 48 61 62 69 76 75 98 98 98 97 99 100 99 95 91 93 89 76 58 44 37 27 24 21 19 18 18 17 16 14 13 13 14 14 13 13 12 12 12 15 20
79 99 95 91 86 66 42 56 67 65 92 97 88 98 97 96 99 99 98 100 97 92 78 62 51 39 30 25 23 20 18 16 16 16 16 16 16 14 14 13 12 12 13 15 17 19 17
72 87 94 91 73 46 39 52 57 96 97 99 100 87 85 86 97 97 94 90 84 79 72 58 46 40 31 28 26 24 21 19 18 17 16 15 14 13 13 12 13 14 17 16 12 13 15
61 79 77 63 59 36 39 44 50 94 90 93 98 93 84 73 79 81 79 78 82 77 67 60 48 35 29 27 24 22 19 18 17 16 15 14 14 14 13 9 8 9 13 19 25 32 29
43 65 68 71 54 48 46 39 60 85 86 98 100 100 99 93 96 83 75 71 57 45 44 32 32 29 26 22 19 18 16 15 14 14 13 12 8 8 14 20 24 24 30 32 39 44 40
28 45 59 60 70 73 61 55 76 93 96 95 99 100 97 85 83 74 67 50 38 32 24 24 23 21 19 18 15 14 12 10 8 8 11 16 21 26 30 36 41 42 42 44 38 43 51
28 25 30 54 54 67 69 74 83 81 80 75 79 86 85 75 66 58 44 34 28 26 27 26 22 19 19 19 18 19 20 20 18 18 20 25 33 39 42 42 37 39 46 50 55 48 47
21 29 25 27 55 53 64 67 69 70 65 68 70 72 64 66 60 56 46 30 28 24 23 26 23 23 24 23 22 22 22 22 21 25 27 33 39 42 39 38 38 39 47 55 64 67 60
15 20 28 26 25 26 32 54 56 56 56 54 56 56 52 43 40 35 33 29 28 29 48 24 29 26 22 23 26 26 26 26 28 31 36 39 44 46 44 38 40 48 55 66 72 78 70
26 15 17 24 27 26 24 24 33 40 42 42 36 32 27 25 23 23 25 25 26 19 37 26 26 30 27 27 31 37 34 35 32 34 33 34 37 40 41 41 41 43 52 72 78 82 85
45 27 14 15 22 26 27 26 22 22 29 32 33 29 26 22 20 21 23 21 17 25 26 21 26 26 27 30 34 35 33 31 32 32 30 36 38 41 42 42 42 44 39 64 72 83 82
74 50 26 13 12 18 24 26 24 22 19 20 22 21 20 20 19 21 18 18 18 24 25 22 34 32 31 32 31 31 30 31 29 31 35 38 39 46 50 48 47 48 49 71 87 94 88
61 78 52 22 15 11 14 18 22 20 19 17 17 18 18 17 17 17 18 15 18 24 25 35 41 42 46 38 44 43 41 40 34 30 30 41 36 38 41 42 44 47 56 64 89 90 96
48 59 84 51 14 21 11 10 14 18 17 16 16 17 16 17 16 15 12 13 17 19 25 29 30 38 44 36 38 36 42 39 33 29 24 32 35 32 42 43 47 53 51 63 67 88 77
48 51 58 86 56 21 19 11 11 10 14 15 16 14 13 12 11 11 11 13 14 17 20 24 25 27 27 28 27 31 42 35 36 32 26 29 38 36 36 35 46 52 57 64 65 75 92
50 49 51 58 86 67 37 12 18 9 10 9 10 12 12 10 12 10 10 11 13 17 20 20 18 18 19 20 18 22 29 29 31 26 27 32 38 30 25 31 49 69 70 67 56 50 76
50 51 49 50 51 83 77 50 20 18 11 9 9 8 10 10 10 10 12 15 16 18 19 18 17 16 16 16 16 20 21 19 19 21 25 24 39 29 24 41 48 65 53 64 67 69 64
46 51 52 50 51 52 74 84 72 41 13 18 7 9 8 7 8 9 9 10 11 12 11 12 12 13 13 13 13 14 16 19 22 24 25 34 29 19 13 12 16 33 33 48 58 52 46
49 52 55 53 50 51 55 67 82 82 65 26 16 15 9 8 9 10 10 9 9 10 9 9 9 10 11 12 13 13 17 21 20 21 23 31 32 27 25 20 20 22 23 27 40 48 59
45 52 60 57 53 51 54 60 75 78 86 80 55 30 18 23 26 15 10 8 8 10 10 11 11 12 11 10 12 13 14 16 20 19 22 29 32 35 22 14 24 22 16 19 21 22 30
48 59 60 59 54 52 54 56 68 77 77 89 84 82 73 57 38 23 22 28 29 30 25 14 11 12 12 14 16 16 16 14 18 20 26 42 45 45 42 26 19 11 12 8 8 10 12
58 69 67 66 60 51 50 50 56 67 73 77 88 87 85 86 84 77 71 46 30 22 28 40 44 35 31 28 18 16 14 11 11 11 22 35 40 53 56 35 51 12 14 16 11 8 7
74 79 76 76 70 59 50 46 49 52 57 66 84 88 95 87 88 87 85 90 79 61 49 40 31 39 39 38 47 32 18 12 14 17 17 24 42 54 51 70 20 10 9 8 10 10 10
84 89 87 86 80 67 52 45 46 44 48 53 59 74 92 98 94 96 90 97 91 93 94 72 49 50 42 47 40 26 17 18 22 21 20 28 56 66 76 74 62 10 11 14 14 12 10
82 87 92 85 82 72 58 55 49 42 42 46 53 55 57 61 70 95 99 100 100 97 88 93 91 81 74 56 45 43 36 33 33 24 21 35 65 58 86 87 44 17 22 21 22 16 14
91 93 85 80 77 74 70 68 62 50 41 38 40 45 50 40 45 49 67 95 100 100 100 98 98 91 92 66 55 48 46 43 38 32 28 28 30 48 91 98 64 20 19 22 23 26 28
99 100 92 87 75 67 61 55 53 48 44 38 34 35 39 40 34 42 50 65 84 98 100 98 100 100 98 86 61 52 50 54 49 49 49 48 43 35 34 25 24 24 29 31 35 36 38
Wind_Speed
33 33 27 27 26 24 24 26 26 23 25 24 29 31 20 13 28 41 49 44 39 35 30 26 25 24 23 22 16 20 18 17 16 15 13 11 10 9 9 8 8 8 9 11 13 14 17
32 32 32 28 23 23 25 26 25 24 23 22 37 35 36 28 40 45 46 43 39 34 28 22 21 20 20 18 15 17 17 16 15 13 11 10 8 8 8 7 7 8 10 12 13 15 17
37 33 36 32 23 23 25 27 26 26 28 29 33 37 23 15 37 48 44 38 31 25 22 20 18 18 17 15 13 14 12 11 10 9 8 7 7 6 6 7 8 9 10 13 15 15 18
42 35 34 35 28 25 27 25 26 28 35 36 32 27 20 21 56 46 43 36 28 25 22 21 19 17 15 15 14 13 12 10 8 8 7 5 5 5 6 7 9 10 12 12 13 18 20
42 43 37 31 28 30 30 25 29 32 35 43 47 38 32 34 45 37 35 30 26 23 20 19 18 16 17 16 13 11 9 7 6 5 5 4 4 5 6 7 9 9 10 13 13 16 20
41 40 50 36 29 32 31 25 33 28 31 37 39 39 34 40 32 33 30 30 23 19 19 18 16 14 14 13 11 9 7 5 4 4 4 4 4 4 6 6 5 6 8 11 15 19 23
41 42 43 42 31 26 32 26 32 39 46 40 39 39 41 37 32 33 27 24 23 20 13 17 16 16 15 12 10 8 6 3 1 2 3 2 1 1 1 2 4 7 11 15 16 21 24
39 43 43 44 38 41 37 35 41 44 47 42 39 38 38 34 33 28 26 18 18 23 26 24 21 16 14 11 11 10 8 6 6 6 8 7 3 3 4 5 7 10 12 14 14 16 28
34 37 44 45 42 40 42 39 42 36 30 32 35 34 32 26 27 24 18 20 21 24 26 22 19 18 16 14 13 11 10 9 8 6 5 4 4 4 4 5 8 10 10 13 19 25 13
32 31 33 39 41 38 37 38 30 26 26 27 28 29 27 26 23 18 17 19 14 15 12 11 12 11 13 12 12 9 8 5 5 5 4 3 2 2 4 6 10 9 12 17 21 17 7
30 29 28 28 32 34 36 33 32 28 26 23 24 23 24 22 23 17 15 11 8 4 5 7 12 11 9 7 7 9 6 5 5 4 3 1 1 1 4 7 10 8 15 19 12 11 12
29 26 26 24 24 24 28 28 28 26 23 20 20 24 23 22 20 13 7 2 3 3 5 5 6 9 9 9 9 8 7 4 4 1 1 1 4 3 5 7 10 13 15 9 9 8 3
27 25 23 23 21 20 19 20 22 20 19 18 15 12 12 12 8 6 4 3 3 4 9 7 8 9 9 8 7 7 6 6 6 1 5 5 4 4 6 7 7 12 15 4 3 2 4
24 23 21 19 18 18 16 15 15 15 15 13 12 12 9 2 2 5 6 6 7 6 8 10 8 7 9 6 6 4 5 6 7 7 5 3 2 3 4 7 7 8 10 3 3 2 5
27 20 19 18 16 14 14 13 11 12 13 11 8 5 3 2 3 4 8 8 7 9 10 9 6 5 4 5 2 3 4 3 5 7 6 4 3 5 6 5 7 4 3 5 3 6 6
30 23 17 17 15 13 11 10 9 8 8 9 9 8 7 6 5 7 10 10 8 10 7 4 3 3 3 3 1 3 3 2 3 4 7 5 6 4 5 7 7 6 3 2 2 2 5
28 27 20 16 15 14 11 8 6 5 4 5 5 6 6 7 8 8 8 10 8 7 5 4 4 2 2 2 4 3 2 4 3 7 10 10 5 5 7 4 6 6 6 3 4 4 3
23 27 24 18 15 13 12 11 8 4 3 3 3 2 4 4 4 4 4 4 3 3 3 2 2 3 3 4 5 3 5 5 8 10 10 7 8 8 8 11 8 9 11 9 5 5 7
18 21 24 21 17 13 12 11 10 8 5 3 2 1 1 1 1 1 0 0 1 1 2 3 4 5 5 6 5 5 6 6 11 7 8 10 6 10 4 4 7 14 14 14 16 17 17
14 15 19 20 18 14 11 10 10 9 7 6 6 3 4 5 5 4 3 5 5 5 7 7 7 8 9 8 8 7 9 8 8 11 11 13 12 13 14 17 22 20 19 17 17 18 21
13 14 16 16 16 16 11 8 8 10 10 7 5 4 6 7 8 7 7 8 9 9 9 9 9 9 10 9 10 12 8 11 14 16 13 13 18 22 25 26 30 37 38 36 39 38 30
15 13 13 12 12 13 14 10 6 8 9 9 7 7 6 8 9 9 11 11 11 12 14 14 14 16 16 15 14 19 19 18 17 17 16 21 17 27 38 26 18 28 28 28 30 32 41
17 15 11 10 10 11 12 12 10 5 6 9 9 9 8 8 8 9 10 11 11 13 13 11 12 15 17 18 20 21 22 22 23 26 27 26 21 22 14 16 31 30 7 6 16 21 25
18 16 13 10 10 11 11 12 12 11 7 9 11 11 11 9 9 9 11 10 11 15 18 18 18 19 17 19 22 24 26 26 25 27 29 31 28 18 21 22 4 3 13 17 23 22 22
22 19 15 14 13 12 11 12 14 14 14 12 12 13 13 13 13 13 11 14 12 13 16 17 17 20 19 20 24 17 15 14 12 15 19 24 28 15 8 8 28 22 3 2 10 29 14
23 23 21 18 16 15 15 13 15 14 15 16 15 18 17 16 15 16 17 15 18 17 19 14 13 17 18 18 17 8 5 8 6 7 10 13 20 23 12 6 7 8 16 23 22 16 6
21 23 23 21 18 18 18 15 15 17 17 18 19 17 17 21 19 16 18 19 21 20 16 19 21 19 19 19 19 16 15 16 9 8 7 13 18 29 29 12 18 21 21 16 8 10 17
27 28 25 25 22 21 22 22 22 22 21 20 22 22 23 23 19 25 23 18 16 22 25 23 23 23 17 14 12 11 11 11 12 17 15 16 11 14 19 12 16 5 6 15 22 39 39
32 32 29 29 28 26 25 24 24 24 24 24 25 27 28 28 25 26 27 26 28 28 29 31 30 28 15 13 11 8 13 16 23 25 22 23 27 25 23 26 28 35 42 43 42 44 41
Wind_Direction
30 36 37 35 42 52 53 61 64 76 79 78 101 102 112 163 124 137 150 150 154 158 160 161 166 167 171 173 178 178 174 175 175 182 187 189 201 216 220 223 236 246 255 261 271 278 281
32 32 34 38 43 51 58 71 82 83 77 80 112 111 116 106 132 143 142 152 154 158 158 157 163 167 170 171 171 175 174 174 176 177 186 194 204 220 240 253 261 266 271 275 280 286 288
37 39 36 41 57 54 62 79 76 79 78 91 116 129 144 127 127 147 150 147 152 154 148 153 158 157 163 161 160 167 175 176 178 182 190 200 216 232 249 264 266 268 275 286 289 289 296
37 44 44 47 58 64 67 79 73 75 97 99 104 118 104 73 131 131 130 132 141 144 146 151 149 145 150 143 150 152 161 168 175 183 191 203 217 238 250 265 273 282 285 284 287 294 298
42 46 53 49 64 74 85 87 79 94 99 96 93 101 104 99 118 125 128 132 133 133 136 141 142 137 140 138 138 140 150 159 167 177 191 210 234 248 266 275 281 282 287 295 301 297 301
45 51 50 58 69 84 92 87 89 98 85 97 101 107 110 124 109 125 127 122 118 123 127 128 136 136 143 138 139 139 144 159 176 191 207 226 256 272 287 292 282 298 305 303 304 299 300
46 54 56 58 68 75 89 90 93 98 105 107 114 110 103 102 116 127 125 116 119 119 121 110 119 128 128 129 129 129 132 132 184 215 224 237 218 210 83 14 332 312 309 308 313 305 305
50 53 65 63 67 75 82 103 98 102 102 100 104 114 108 107 115 124 119 114 108 109 102 100 100 105 107 110 112 104 107 110 117 126 117 115 104 69 31 356 331 319 315 310 315 317 306
48 51 61 73 69 73 79 103 110 103 89 96 102 102 107 112 111 105 106 104 102 99 90 90 94 100 101 100 99 98 105 109 111 108 102 92 90 51 33 8 343 326 319 318 313 322 329
48 51 51 67 78 73 70 83 106 99 91 92 99 100 104 116 109 108 108 112 95 94 86 76 86 87 103 97 82 94 95 109 110 97 106 70 83 59 22 356 340 331 326 319 318 318 322
50 49 52 52 64 74 77 78 84 82 87 92 93 97 103 112 110 106 111 117 118 84 67 87 92 102 104 104 113 76 95 103 91 91 81 114 99 339 337 342 345 330 325 316 305 305 316
49 51 49 51 54 59 76 80 83 83 84 89 96 109 114 117 117 113 102 94 107 75 60 103 107 98 91 87 91 85 66 84 57 90 38 269 266 277 321 342 341 337 331 310 304 317 317
45 50 55 51 50 55 62 74 88 89 98 102 105 109 111 116 90 67 46 69 78 69 128 117 118 99 100 98 98 89 75 61 47 52 335 299 272 283 300 325 336 343 347 331 337 343 222
43 46 48 57 55 52 52 67 81 87 94 103 120 134 140 134 21 26 45 84 67 127 127 135 118 113 100 112 89 75 55 42 33 23 350 326 277 303 298 311 319 340 10 38 237 310 289
33 45 49 45 53 57 61 59 60 85 100 101 104 117 121 87 80 92 103 79 122 129 128 133 127 92 85 64 71 35 11 26 13 14 2 323 295 294 287 298 311 320 336 342 296 279 297
28 32 47 49 46 50 54 59 71 77 76 78 85 87 89 90 103 96 95 95 113 114 111 89 102 79 60 43 29 343 337 314 333 348 350 314 303 279 274 295 284 253 280 283 288 8 296
26 29 34 45 45 36 38 52 56 62 66 79 78 79 71 81 92 88 80 89 83 69 53 55 48 52 346 345 325 311 271 293 288 324 330 318 275 274 282 260 275 238 239 232 269 233 197
25 26 31 29 34 38 26 21 21 31 30 24 65 71 78 94 84 107 84 83 74 63 49 14 341 326 318 325 316 288 248 273 291 306 314 303 291 279 279 271 254 247 256 248 223 209 226
26 29 27 28 23 18 26 18 12 355 355 321 318 305 235 204 299 346 307 188 275 288 284 290 299 306 305 308 311 284 281 297 305 316 319 318 292 302 284 262 259 251 259 254 254 253 241
18 16 13 16 20 14 1 12 10 360 347 326 308 289 286 279 289 297 302 306 303 304 307 301 294 291 295 293 283 277 291 303 303 313 311 305 273 263 260 286 288 267 261 247 254 247 250
357 357 4 7 7 5 5 347 343 357 350 344 316 290 285 291 296 293 291 289 292 295 293 301 297 298 293 294 297 287 283 294 305 309 305 298 288 293 291 292 288 282 273 265 257 253 246
333 339 348 354 354 354 1 356 322 336 330 345 338 337 302 295 295 296 295 292 291 287 289 291 286 284 288 291 289 291 295 295 295 294 294 295 291 301 301 310 288 284 277 267 263 262 261
316 317 324 335 342 340 347 354 1 311 312 312 321 326 325 321 318 307 299 297 294 293 293 288 291 288 289 294 287 288 285 286 284 285 285 284 288 304 298 304 305 296 322 275 261 271 280
300 300 299 308 319 323 330 335 338 341 322 284 292 303 305 311 315 315 310 305 304 294 288 291 291 289 293 289 286 287 287 286 279 275 268 266 273 281 287 314 307 309 306 285 292 296 297
289 286 284 289 292 294 303 315 317 321 316 314 291 285 284 282 286 300 295 307 302 302 303 304 295 291 291 291 297 302 301 288 275 271 263 253 252 255 262 276 293 308 14 330 306 308 314
280 286 284 284 281 279 285 296 298 303 306 298 298 299 298 296 298 286 291 291 295 294 293 297 302 300 294 290 291 275 282 287 268 275 266 240 233 235 235 244 250 275 291 299 309 312 258
284 293 283 282 277 271 280 287 296 294 291 291 286 283 288 290 292 288 290 288 292 298 284 297 296 294 293 286 275 272 268 256 257 249 250 224 228 230 237 252 267 298 277 277 272 301 301
278 277 286 281 277 271 275 282 289 288 283 283 284 283 281 282 281 282 284 280 269 283 292 288 288 294 283 270 262 261 256 250 250 255 266 269 253 232 223 233 268 311 281 261 298 300 300
269 267 278 278 279 276 275 280 286 288 282 279 277 277 276 276 281 279 273 273 272 276 283 276 274 281 275 265 255 262 259 262 272 264 268 258 268 264 255 261 268 278 290 294 294 297 302